Location: Darmstadt
(49.8706°N, 8.6494°E)
Time: 07:05:41
(UTC+01:00)

GEOS 3 Rocket - Pass Details

Date: 31 October 2020
Orbit: 770 x 850 km, 115.0° (Epoch: 03 December)

Event Time Altitude Azimuth Distance (km) Brightness Sun altitude
Exits shadow 18:28:51 20° 89° (E) 1,830 4.8 -14.1°
Maximum altitude 18:31:57 39° 33° (NNE) 1,254 4.3 -14.6°
Drops below altitude 10° 18:36:56 10° 327° (NNW) 2,483 6.5 -15.4°
Sets 18:39:24 0° 320° (NW) 3,424 7.4 -15.8°
